Location: Newark
(50.9000°N, 14.8333°E)
Time: 11:26:26
(UTC+00:00)

N. Korean satellite - Pass Details

Date: 04 November 2020
Orbit: 453 x 503 km, 97.2° (Epoch: 03 December)

Event Time Altitude Azimuth Distance (km) Brightness Sun altitude
Rises 03:26:43 0° 32° (NNE) 2,479 10.7 -24.1°
Reaches altitude 10° 03:29:52 10° 64° (ENE) 1,600 10.1 -23.6°
Maximum altitude 03:31:17 12° 89° (E) 1,474 10.0 -23.4°
Drops below altitude 10° 03:32:42 10° 113° (ESE) 1,598 10.0 -23.2°
Sets 03:35:50 0° 146° (SE) 2,472 10.6 -22.7°
